User: anonymous
Location: Caltech
(34.1382°N, 118.1253°W)
Time: 07:00:32
(UTC-07:00)
Language:

Cosmos 1833 - Orbit

View from above orbital plane
View from above orbital plane
View from above satellite
View from above satellite

Ground track
Ground track

The orbit data is extracted from the following two-line orbital elements,

1 17589U 87027A   14244.77970509  .00000044  00000-0  49607-4 0  7955
2 17589 070.9125 166.9495 0008474 029.1118 038.2867 14.12804831416323
Epoch (UTC): 01 September 2014 18:42:46
Eccentricity: 0.0008474
inclination: 70.9125°
perigee height: 843 km
apogee height: 856 km
right ascension of ascending node: 166.9495°
argument of perigee: 29.1118°
revolutions per day: 14.12804831
mean anomaly at epoch: 38.2867°
orbit number at epoch: 41632

The dashed part of the orbit path shows where the satellite is in the earth's shadow,  

DLR